West Palm Beach, FL

3:35 AM EST on December 11, 2016 (GMT -0500)
Palm Beach International

Weather History for KPBI - March, 2012

Change the Weather History Date:

Wednesday, March 28, 2012

  Actual Average Record
Temperature  
Mean Temperature 76 °F 72 °F  
Max Temperature 81 °F 80 °F 91 °F (1909)
Min Temperature 71 °F 63 °F 47 °F (2013)
Degree Days  
Heating Degree Days 0 0  
Month to date heating degree days 3 22  
Since 1 July heating degree days 112 227  
Cooling Degree Days 11 7  
Month to date cooling degree days 251 172  
Year to date cooling degree days 567 407  
Growing Degree Days 25 (Base 50)    
Moisture  
Dew Point 62 °F    
Average Humidity 68    
Maximum Humidity 79    
Minimum Humidity 57    
Precipitation  
Precipitation 0.05 in 0.14 in 3.65 in (1982)
Month to date precipitation 1.82 4.14  
Year to date precipitation 6.02 10.09  
Snow  
Snow 0.00 in - - ()
Month to date snowfall 0.0  
Since 1 July snowfall 0.0  
Snow Depth 0.00 in    
Sea Level Pressure  
Sea Level Pressure 30.13 in    
Wind  
Wind Speed 14 mph (East)    
Max Wind Speed 21 mph    
Max Gust Speed 28 mph    
Visibility 10 miles    
Events Rain    
T = Trace of Precipitation, MM = Missing Value Source: NWS Daily Summary

Daily Weather History Graph

Daily Weather History Graph

Search for Another Location

Airport or City:

Trip Planner

Search our weather history database for the weather conditions in past years. The results will help you decide how hot, cold, wet, or windy it might be!

Date:

Astronomy

Mar. 28, 2012 Rise Set
Actual Time 7:15 AM EDT 7:35 PM EDT
Civil Twilight 6:51 AM EDT 7:59 PM EDT
Nautical Twilight 6:24 AM EDT 8:26 PM EDT
Astronomical Twilight 5:57 AM EDT 8:53 PM EDT
Moon 10:58 AM EDT (3/28) 12:08 AM EDT (3/28)
Length of Visible Light 13h 07m
Length of Day
12h 20m
Waxing Crescent, 30% of the Moon is Illuminated
Mar 28
Waxing Crescent
Mar 30
First Quarter
Apr 6
Full
Apr 13
Last Quarter
Apr 21
New

Hourly Weather History & Observations

Time (EDT) Temp. Dew Point Humidity Pressure Visibility Wind Dir Wind Speed Gust Speed Precip Events Conditions
12:53 AM 73.0 °F 59.0 °F 61% 30.16 in 10.0 mi East 15.0 mph - N/A   Scattered Clouds
1:53 AM 73.0 °F 59.0 °F 61% 30.15 in 10.0 mi East 15.0 mph - N/A   Scattered Clouds
2:53 AM 73.0 °F 57.9 °F 59% 30.14 in 10.0 mi East 13.8 mph - N/A   Scattered Clouds
3:53 AM 73.0 °F 59.0 °F 61% 30.12 in 10.0 mi East 17.3 mph - N/A   Scattered Clouds
4:53 AM 73.0 °F 59.0 °F 61% 30.12 in 10.0 mi East 19.6 mph - N/A   Scattered Clouds
5:53 AM 72.0 °F 57.9 °F 61% 30.13 in 10.0 mi East 17.3 mph - N/A   Partly Cloudy
6:53 AM 72.0 °F 57.9 °F 61% 30.14 in 10.0 mi ESE 13.8 mph - N/A   Partly Cloudy
7:53 AM 73.0 °F 59.0 °F 61% 30.15 in 10.0 mi East 15.0 mph - N/A   Scattered Clouds
8:53 AM 75.0 °F 61.0 °F 62% 30.16 in 10.0 mi East 19.6 mph - N/A   Scattered Clouds
9:53 AM 77.0 °F 62.1 °F 60% 30.17 in 10.0 mi ESE 16.1 mph - N/A   Scattered Clouds
10:53 AM 78.1 °F 62.1 °F 58% 30.19 in 10.0 mi East 16.1 mph - N/A   Scattered Clouds
11:53 AM 79.0 °F 62.1 °F 56% 30.18 in 10.0 mi ESE 15.0 mph 21.9 mph N/A   Mostly Cloudy
12:53 PM 78.1 °F 63.0 °F 60% 30.17 in 10.0 mi ENE 13.8 mph - N/A   Scattered Clouds
1:53 PM 79.0 °F 63.0 °F 58% 30.15 in 10.0 mi East 17.3 mph - N/A   Scattered Clouds
2:53 PM 78.1 °F 64.0 °F 62% 30.13 in 10.0 mi East 17.3 mph - N/A   Mostly Cloudy
3:53 PM 77.0 °F 63.0 °F 62% 30.10 in 10.0 mi ESE 17.3 mph - N/A   Mostly Cloudy
4:53 PM 75.0 °F 63.0 °F 66% 30.09 in 10.0 mi East 15.0 mph - N/A   Mostly Cloudy
5:53 PM 73.9 °F 64.9 °F 73% 30.09 in 10.0 mi East 12.7 mph - 0.00 in Rain Light Rain
6:53 PM 73.0 °F 66.9 °F 81% 30.09 in 10.0 mi East 10.4 mph - 0.05 in Rain Light Rain
7:53 PM 73.0 °F 64.9 °F 76% 30.09 in 10.0 mi ESE 10.4 mph - 0.00 in   Mostly Cloudy
8:53 PM 72.0 °F 64.0 °F 76% 30.09 in 10.0 mi ESE 11.5 mph - N/A   Scattered Clouds
9:53 PM 72.0 °F 63.0 °F 73% 30.10 in 10.0 mi ESE 11.5 mph - N/A   Scattered Clouds
10:53 PM 71.1 °F 62.1 °F 73% 30.10 in 10.0 mi SE 8.1 mph - N/A   Partly Cloudy
11:53 PM 71.1 °F 63.0 °F 75% 30.09 in 10.0 mi SE 4.6 mph - N/A   Mostly Cloudy